Weather History for Ft Lauderdale, FL

Change the Weather History Date:

Friday, May 10, 2013

  Actual Average Record
Temperature  
Mean Temperature 80 °F 79 °F  
Max Temperature 87 °F 85 °F 95 °F (2008)
Min Temperature 72 °F 73 °F 53 °F (1928)
Degree Days  
Heating Degree Days 0 0  
Month to date heating degree days 0 0  
Since 1 July heating degree days 85 112  
Cooling Degree Days 15 14  
Month to date cooling degree days 112 136  
Year to date cooling degree days 1082 1083  
Growing Degree Days 28 (Base 50)    
Moisture  
Dew Point 71 °F    
Average Humidity 75    
Maximum Humidity 85    
Minimum Humidity 65    
Precipitation  
Precipitation 0.03 in 0.11 in 3.36 in (1990)
Month to date precipitation 6.11 0.84  
Year to date precipitation 15.24 13.68  
Snow  
Snow 0.00 in - - ()
Month to date snowfall 0.0  
Since 1 July snowfall 0.0  
Snow Depth 0.00 in    
Sea Level Pressure  
Sea Level Pressure 30.08 in    
Wind  
Wind Speed 8 mph (SE)    
Max Wind Speed 17 mph    
Max Gust Speed 23 mph    
Visibility 10 miles    
Events Rain , Thunderstorm    
T = Trace of Precipitation, MM = Missing Value Source: NWS Daily Summary

Daily Weather History Graph

Daily Weather History Graph

Search for Another Location

Airport:

Trip Planner

Search our weather history database for the weather conditions in past years. The results will help you decide how hot, cold, wet, or windy it might be!

Date:

Astronomy

May. 10, 2013 Rise Set
Actual Time 6:37 AM EDT 7:57 PM EDT
Civil Twilight 6:12 AM EDT 8:22 PM EDT
Nautical Twilight 5:42 AM EDT 8:51 PM EDT
Astronomical Twilight 5:12 AM EDT 9:22 PM EDT
Moon 7:01 AM EDT (5/10) 8:43 PM EDT (5/10)
Length of Visible Light 14h 09m
Length of Day
13h 20m
New Moon, 0% of the Moon is Illuminated
May 10
New Moon
May 18
First Quarter
May 25
Full
May 31
Last Quarter
Jun 8
New

Hourly Weather History & Observations

Time (EDT) Temp. Heat Index Dew Point Humidity Pressure Visibility Wind Dir Wind Speed Gust Speed Precip Events Conditions
12:02 AM 78.8 °F - 73.4 °F 83% 30.14 in 10.0 mi SE 6.9 mph - N/A   Mostly Cloudy
12:18 AM 78.8 °F - 73.4 °F 83% 30.13 in 10.0 mi ESE 5.8 mph - N/A   Mostly Cloudy
12:53 AM 79.0 °F - 73.0 °F 82% 30.12 in 10.0 mi ESE 3.5 mph - N/A   Scattered Clouds
1:30 AM 78.8 °F - 73.4 °F 83% 30.11 in 10.0 mi ESE 4.6 mph - N/A   Mostly Cloudy
1:53 AM 78.1 °F - 73.0 °F 84% 30.10 in 10.0 mi SE 3.5 mph - N/A   Mostly Cloudy
2:53 AM 77.0 °F - 69.1 °F 76% 30.09 in 10.0 mi Calm Calm - 0.03 in   Partly Cloudy
3:19 AM 75.2 °F - 69.8 °F 83% 30.08 in 10.0 mi Calm Calm - N/A Thunderstorm Thunderstorm
3:49 AM 75.2 °F - 69.8 °F 83% 30.08 in 10.0 mi SE 10.4 mph 16.1 mph N/A Thunderstorm Thunderstorm
3:53 AM 75.0 °F - 69.1 °F 82% 30.08 in 10.0 mi ESE 10.4 mph 16.1 mph N/A Thunderstorm Thunderstorm
4:09 AM 75.2 °F - 66.2 °F 73% 30.07 in 10.0 mi SE 6.9 mph - 0.00 in Rain , Thunderstorm Light Thunderstorms and Rain
4:24 AM 73.4 °F - 66.2 °F 78% 30.08 in 10.0 mi SE 8.1 mph - 0.00 in   Scattered Clouds
4:53 AM 73.9 °F - 66.0 °F 76% 30.07 in 10.0 mi SE 9.2 mph - 0.00 in   Scattered Clouds
5:53 AM 73.0 °F - 68.0 °F 84% 30.07 in 10.0 mi South 5.8 mph - N/A   Partly Cloudy
6:53 AM 73.0 °F - 68.0 °F 84% 30.07 in 10.0 mi Calm Calm - N/A   Partly Cloudy
7:53 AM 75.9 °F - 70.0 °F 82% 30.09 in 10.0 mi Calm Calm - N/A   Partly Cloudy
8:53 AM 80.1 °F 84.2 °F 73.0 °F 79% 30.09 in 10.0 mi SSE 8.1 mph - N/A   Clear
9:53 AM 80.1 °F 83.8 °F 72.0 °F 76% 30.10 in 10.0 mi ESE 13.8 mph - N/A   Scattered Clouds
10:53 AM 82.0 °F 86.3 °F 71.1 °F 69% 30.11 in 10.0 mi SSE 6.9 mph - N/A   Partly Cloudy
11:53 AM 84.9 °F 90.7 °F 72.0 °F 65% 30.10 in 10.0 mi SE 10.4 mph - N/A   Partly Cloudy
12:53 PM 84.9 °F 90.1 °F 71.1 °F 63% 30.08 in 10.0 mi SE 13.8 mph - N/A   Partly Cloudy
1:53 PM 84.9 °F 90.1 °F 71.1 °F 63% 30.07 in 10.0 mi ESE 15.0 mph - N/A   Partly Cloudy
2:53 PM 84.0 °F 89.6 °F 72.0 °F 67% 30.06 in 10.0 mi SSE 12.7 mph - N/A   Partly Cloudy
3:53 PM 84.0 °F 90.2 °F 73.0 °F 69% 30.04 in 10.0 mi SE 13.8 mph - N/A   Partly Cloudy
4:53 PM 82.0 °F 87.4 °F 73.0 °F 74% 30.03 in 10.0 mi SE 16.1 mph - N/A   Scattered Clouds
5:53 PM 81.0 °F 86.2 °F 73.9 °F 79% 30.03 in 10.0 mi SSE 10.4 mph - N/A   Scattered Clouds
6:53 PM 81.0 °F 86.2 °F 73.9 °F 79% 30.05 in 10.0 mi SSE 4.6 mph - N/A   Scattered Clouds
7:53 PM 80.1 °F 84.2 °F 73.0 °F 79% 30.05 in 10.0 mi SSE 5.8 mph - N/A   Scattered Clouds
8:53 PM 79.0 °F - 73.0 °F 82% 30.07 in 10.0 mi South 3.5 mph - N/A   Scattered Clouds
9:53 PM 79.0 °F - 73.9 °F 84% 30.07 in 10.0 mi SSE 6.9 mph - N/A   Partly Cloudy
10:53 PM 79.0 °F - 73.0 °F 82% 30.07 in 10.0 mi SSE 6.9 mph - N/A   Partly Cloudy
11:53 PM 79.0 °F - 73.0 °F 82% 30.07 in 10.0 mi SSE 4.6 mph - N/A   Partly Cloudy